Theta_e
353 353 355 356 357 357 357 358 358 358 358 359 359 358 357 357 356 354 348 343 344 346 347 347 347 347 349 348 348 348 347 345 344 342 341 340 339 338 337 335 335 335 336 337 339 340 340 341 342 341 342 343 343 343 344 344 344 344 343 344 344 343 343
349 351 354 355 356 356 357 358 358 359 358 359 358 357 357 357 356 354 349 345 344 346 347 347 348 348 348 348 347 348 348 348 346 347 346 342 338 338 336 335 336 337 338 339 340 340 340 341 341 341 342 342 342 343 344 344 346 345 343 342 344 344 343
347 350 352 353 356 356 357 357 358 358 358 358 359 357 356 356 354 351 348 345 344 345 347 347 347 348 348 348 348 347 348 348 347 348 348 343 338 337 337 336 337 338 339 340 341 341 340 341 341 341 341 341 341 341 343 344 345 345 344 342 344 345 344
344 347 350 352 354 356 356 357 358 358 358 357 357 356 355 353 351 349 348 345 343 344 346 347 347 348 349 348 348 348 348 348 347 349 347 343 339 338 338 338 338 339 340 341 341 341 341 340 341 341 340 340 341 341 341 343 343 344 344 343 343 345 345
343 345 349 351 353 355 356 356 357 357 357 357 357 356 355 353 351 349 347 344 343 343 344 346 347 348 348 348 348 349 349 348 349 349 348 344 342 341 339 340 340 340 341 340 341 341 340 340 340 340 339 338 338 339 341 341 342 343 342 343 344 343 344
343 344 347 349 352 355 355 356 356 357 357 356 357 357 357 355 353 350 348 345 343 344 343 344 346 347 348 349 348 348 349 349 349 350 350 347 345 343 341 340 341 340 340 341 341 341 340 339 339 339 338 337 337 338 339 340 341 342 342 343 343 342 343
341 344 347 349 352 353 355 355 355 355 356 356 357 358 358 357 355 354 353 349 345 344 344 343 345 346 346 347 348 348 349 349 349 349 350 350 348 347 344 342 342 342 341 341 342 341 340 339 338 338 337 337 337 336 338 339 339 341 342 343 342 340 339
339 344 347 349 351 351 353 355 355 355 356 355 356 358 357 357 357 356 355 353 348 345 345 343 343 343 345 346 347 348 348 348 349 349 349 349 349 348 346 345 344 343 342 342 341 341 340 338 338 337 336 337 337 336 336 337 338 340 341 342 341 338 337
339 345 348 348 349 351 352 354 354 355 355 356 355 356 356 357 357 356 356 355 352 347 346 346 346 343 343 345 345 346 347 348 348 349 349 349 349 348 348 347 346 345 343 342 341 340 339 338 337 336 336 336 336 336 336 336 337 339 340 339 337 336 336
338 344 348 348 347 350 352 353 355 355 355 355 354 355 356 357 357 357 357 356 354 351 348 350 351 348 343 344 345 345 346 347 347 348 349 349 349 349 348 348 347 346 344 342 341 339 338 337 336 336 335 335 335 336 335 336 336 337 337 335 334 333 334
342 347 352 352 350 350 351 353 354 354 355 356 354 355 356 356 357 357 357 355 355 354 353 353 353 351 345 343 344 346 346 347 347 347 348 348 348 348 348 350 349 347 345 343 341 340 337 336 336 335 335 335 335 335 335 335 335 335 335 333 331 331 332
340 345 348 351 351 352 351 353 355 355 356 355 355 355 356 356 356 356 356 356 355 356 356 355 356 355 348 343 344 345 345 345 346 347 347 348 348 348 349 350 351 348 344 343 341 340 338 336 335 335 335 334 334 335 334 334 334 334 334 333 331 330 330
338 339 342 345 349 352 352 353 355 356 355 354 354 354 356 356 356 355 356 356 356 357 357 356 356 355 350 345 344 345 345 345 346 346 347 347 347 349 350 350 352 349 346 342 341 341 339 337 335 335 335 333 333 333 333 333 333 333 332 332 332 330 329
337 337 341 346 347 350 352 354 356 357 356 354 353 354 355 356 355 355 356 356 357 357 357 357 355 353 350 346 345 345 344 344 345 345 346 346 346 348 349 350 350 349 346 343 343 341 340 339 337 335 334 334 332 331 332 331 332 332 331 330 330 330 330
336 334 338 345 350 351 350 352 356 355 354 353 354 354 355 356 356 356 356 357 357 357 357 357 355 352 350 347 346 345 345 344 345 345 346 346 346 347 348 349 348 347 345 344 344 343 343 342 342 339 335 333 332 331 331 330 329 329 329 329 329 329 330
341 339 338 340 346 349 349 349 352 351 351 353 353 353 355 355 355 356 356 357 357 357 357 357 354 352 350 348 346 346 345 345 345 345 345 346 346 346 347 348 347 347 346 345 344 345 345 344 345 344 340 334 332 332 331 330 328 327 327 327 327 328 329
348 352 351 347 346 347 348 350 352 351 350 350 350 352 354 355 355 355 356 357 357 357 357 355 353 350 348 347 347 347 346 346 345 345 346 346 346 347 347 347 348 347 346 346 345 345 346 345 345 347 345 339 334 332 331 330 328 326 325 326 326 326 328
355 356 358 359 357 353 349 349 352 354 349 345 348 351 353 355 355 354 355 357 357 357 356 355 352 349 348 348 348 347 347 346 346 346 346 346 346 347 347 347 348 347 347 346 346 345 346 346 346 346 346 344 339 334 332 331 329 326 325 325 325 325 326
357 357 358 361 362 361 356 350 348 352 349 345 347 350 351 352 354 352 350 354 355 356 356 355 353 351 349 348 348 347 347 347 346 346 346 346 346 346 347 347 347 348 347 347 347 346 346 347 347 346 346 346 343 338 334 332 330 328 326 325 325 326 326
357 358 360 360 360 363 362 356 347 347 352 350 345 345 349 353 354 352 350 352 355 356 356 356 355 353 350 348 347 347 347 347 347 347 346 346 346 347 347 347 347 348 348 348 347 347 347 347 347 347 347 346 345 341 337 334 332 329 327 327 326 326 327
357 358 359 360 361 362 363 360 349 343 348 353 350 349 352 355 356 355 352 351 352 355 355 355 355 354 351 348 347 347 347 347 347 347 347 347 347 347 347 347 347 347 348 349 348 348 347 347 347 348 348 347 346 344 339 336 333 330 328 328 328 328 329
355 357 358 359 361 362 363 362 354 343 343 352 354 352 353 355 356 356 353 350 351 354 355 354 353 352 350 348 347 347 346 347 347 347 347 347 347 348 347 347 348 347 347 348 349 348 348 347 347 348 349 348 347 347 344 339 334 332 330 329 329 330 331
353 355 358 359 360 363 363 359 354 347 345 350 354 353 353 355 356 357 354 352 352 353 354 353 351 350 348 347 347 347 347 347 347 347 347 348 348 348 348 347 347 348 348 348 349 349 348 347 348 348 348 349 348 348 346 342 338 335 332 331 330 331 332
352 355 357 358 360 362 358 353 351 349 348 352 355 352 352 354 357 357 353 351 352 353 353 352 350 348 348 347 347 347 347 347 347 348 347 348 348 347 348 348 347 348 348 347 348 348 348 348 348 348 348 349 349 349 347 346 344 340 336 334 333 333 334
351 355 356 358 361 361 356 352 352 350 351 354 355 353 354 355 356 356 351 348 352 355 353 351 349 348 346 348 346 347 347 347 347 348 348 348 348 348 348 348 347 348 347 347 348 349 350 349 348 348 348 349 349 349 350 349 349 347 342 340 338 337 337
349 354 355 357 359 359 356 354 353 353 353 355 353 353 354 356 357 354 349 348 353 355 352 349 348 348 347 347 347 347 347 348 347 347 348 348 348 348 348 348 348 348 348 348 348 348 349 351 351 350 349 349 350 350 351 352 353 351 349 346 344 342 341
348 353 354 356 358 358 357 355 355 354 354 354 354 354 355 357 357 353 349 348 350 351 349 348 347 347 348 347 348 347 347 348 348 347 349 349 348 348 348 348 349 348 348 349 349 349 349 351 354 355 354 352 353 352 353 353 354 354 354 352 350 349 347
345 350 353 355 356 358 358 356 355 354 354 356 356 355 356 357 354 350 347 346 347 347 349 350 348 347 348 347 348 348 348 348 348 348 348 349 348 349 348 349 348 350 351 352 351 351 351 352 354 357 358 357 357 357 357 357 357 356 357 356 355 353 352
343 347 351 354 355 357 359 359 357 354 354 358 357 356 358 356 352 348 346 345 346 349 349 350 348 347 348 348 348 349 349 348 348 349 348 349 349 349 349 349 349 350 352 353 353 354 356 356 356 358 360 361 361 361 361 361 360 359 358 357 357 357 356
341 345 349 352 354 357 358 360 361 358 356 357 357 357 358 356 350 346 347 346 348 349 350 348 348 347 348 348 348 349 348 348 349 349 349 349 349 350 350 350 350 351 352 353 356 358 359 360 361 361 362 362 362 362 362 362 363 362 360 359 359 360 359
339 343 347 350 354 356 358 359 360 361 360 359 358 359 359 356 350 347 348 349 348 349 349 349 348 349 348 348 349 349 349 349 350 350 350 350 350 350 351 351 351 352 353 355 358 361 362 362 362 363 362 362 363 363 363 363 363 363 363 362 361 361 361
338 344 347 349 352 355 357 358 358 360 362 361 361 363 361 358 354 350 349 350 350 349 350 350 349 349 350 349 349 350 350 350 350 350 350 350 351 351 351 352 353 353 354 355 358 361 363 363 363 363 363 364 364 364 364 364 364 364 364 363 363 363 362
336 343 346 347 350 352 355 358 358 358 360 361 361 362 362 361 360 355 352 351 351 350 350 350 349 349 350 350 351 350 350 351 352 352 351 350 351 353 352 352 353 354 354 354 356 360 363 364 364 364 364 364 365 365 365 365 365 365 365 364 364 364 363
331 340 345 346 349 351 352 355 357 358 359 359 360 361 363 362 362 360 356 352 351 351 351 350 350 351 350 350 351 351 352 352 354 356 356 353 353 356 357 356 356 357 357 356 357 360 363 365 365 365 364 365 365 365 365 365 365 365 365 365 365 365 364
326 335 343 344 346 349 350 351 354 356 358 359 358 359 361 362 362 362 361 357 353 352 352 350 350 352 351 351 353 353 354 354 354 356 360 360 358 358 361 362 361 361 362 362 361 361 363 365 366 365 365 365 365 365 366 366 366 366 366 365 365 365 364
325 330 339 343 345 347 349 349 351 354 356 358 359 359 359 359 360 360 360 358 355 355 355 352 350 351 352 353 354 353 353 353 353 354 360 364 364 362 361 361 362 364 365 365 365 364 363 364 365 365 365 365 365 366 366 366 366 367 366 365 365 364 364
325 326 332 339 343 345 347 348 349 351 353 355 357 359 359 359 360 360 359 359 359 359 358 353 349 353 357 358 356 354 352 353 354 355 358 364 368 367 364 361 362 362 363 365 366 365 364 363 364 364 364 365 365 366 365 365 366 366 365 365 364 363 363
326 322 325 333 340 343 344 346 347 348 350 352 353 356 358 358 360 361 362 362 363 363 361 356 352 355 360 362 359 357 354 353 355 356 357 363 368 370 367 364 363 362 362 363 364 365 364 364 363 362 363 363 364 364 364 364 365 364 364 364 364 364 364
Wind_Speed
22 23 26 26 28 30 32 34 35 36 37 37 39 39 38 38 38 40 43 45 44 43 42 41 40 38 37 36 34 32 32 33 32 32 32 32 32 31 30 29 27 26 25 24 23 22 21 21 20 19 17 16 15 14 14 13 13 12 12 11 11 10 10
21 22 25 26 28 30 31 33 35 37 38 38 39 40 40 39 40 42 44 45 45 44 43 42 41 39 38 37 35 33 32 32 32 30 29 30 31 30 30 29 28 26 25 24 23 22 20 20 20 20 18 16 16 16 15 14 14 13 13 12 12 11 11
20 21 24 26 28 30 32 34 36 37 38 39 40 41 42 42 43 44 46 46 45 44 43 43 41 40 38 36 35 34 32 32 31 28 26 28 30 29 29 29 28 27 25 24 23 22 21 20 20 20 19 18 17 17 16 15 15 14 14 13 13 12 12
22 22 24 27 29 30 31 34 35 36 37 39 41 42 43 45 45 45 46 46 45 44 44 43 42 40 39 37 35 34 32 32 31 27 27 29 30 28 29 29 28 28 27 25 23 22 22 21 20 20 20 19 18 18 17 16 16 15 15 14 14 13 13
25 24 24 26 27 28 30 33 36 37 38 38 39 41 42 44 44 44 45 45 45 44 44 43 42 41 40 38 37 35 33 32 31 28 28 30 29 29 30 29 29 28 27 26 25 24 23 22 21 21 20 20 19 18 18 18 17 17 16 15 15 15 14
24 25 25 26 27 28 31 34 36 38 39 38 39 40 40 42 43 44 44 44 44 44 43 43 43 43 42 40 39 37 35 33 32 30 29 29 29 30 30 29 29 28 28 27 26 25 24 22 22 22 21 21 20 20 20 19 19 18 17 17 17 16 16
22 24 25 26 27 29 32 34 36 37 37 36 36 37 37 39 41 41 42 43 44 44 43 43 43 43 43 41 40 39 38 35 34 32 30 29 29 29 29 28 28 28 28 27 27 26 24 23 23 23 23 22 21 21 21 21 21 20 19 18 18 19 19
21 23 25 26 28 29 31 33 34 34 34 34 34 36 38 38 39 40 41 42 42 43 43 43 43 43 43 42 41 40 39 37 35 33 32 30 29 29 28 27 27 27 27 28 28 27 25 24 24 24 24 24 23 23 23 23 23 21 21 20 20 20 20
22 24 25 27 28 29 30 31 31 31 32 34 35 37 38 38 39 41 42 41 41 43 44 43 43 43 43 42 42 41 39 38 36 35 33 32 31 30 28 27 26 26 27 27 28 27 26 26 25 25 26 25 25 25 24 24 23 22 22 22 22 22 21
20 23 25 26 26 26 26 26 27 30 33 36 37 36 36 37 38 39 39 40 41 42 43 42 41 42 43 42 41 41 39 38 37 36 34 33 33 31 29 28 27 26 26 26 26 27 27 26 26 26 27 27 27 26 25 25 24 23 24 24 24 24 23
11 15 16 17 19 20 22 24 27 32 35 38 39 37 38 39 38 38 39 41 41 41 41 41 41 42 43 42 41 41 40 39 38 37 36 35 34 32 31 29 28 27 27 26 26 27 27 27 27 27 28 28 27 27 26 26 25 25 25 25 25 25 24
8 10 11 12 14 17 20 23 27 31 34 38 38 37 38 39 39 38 39 41 40 39 40 41 40 41 43 42 41 41 40 40 39 38 37 36 34 33 31 30 29 29 28 27 26 27 27 28 28 28 28 28 27 27 27 27 27 26 26 26 26 26 26
7 9 12 13 15 18 21 23 26 30 35 37 37 36 36 38 38 38 39 40 39 38 39 41 41 42 44 43 41 41 41 41 40 40 38 37 35 33 32 31 30 30 29 27 27 27 28 28 28 29 29 28 28 28 28 28 28 28 28 27 26 27 26
4 7 10 13 16 19 22 25 28 31 35 37 36 35 35 35 36 37 37 39 38 37 38 40 42 44 45 43 42 42 42 42 41 41 39 38 35 34 34 32 31 31 30 28 28 28 29 29 29 29 29 29 28 28 28 29 29 30 30 29 28 28 27
5 6 7 12 17 21 23 26 29 32 35 36 35 35 34 34 35 35 36 37 38 37 38 40 43 45 45 44 43 43 42 42 42 41 40 38 36 36 35 34 33 32 31 30 29 29 29 28 28 29 29 28 28 28 29 30 30 31 31 31 30 29 28
8 7 5 6 13 19 22 25 29 32 35 36 36 36 35 35 36 38 37 37 39 39 39 40 43 45 45 44 44 43 42 42 42 41 40 39 38 36 36 35 33 32 32 31 30 29 29 29 29 28 28 28 28 29 29 30 31 31 32 32 31 30 30
12 11 9 6 6 12 17 22 26 30 34 37 38 38 38 37 39 40 37 37 39 40 41 43 45 46 45 44 44 43 42 42 42 42 41 40 39 37 36 35 34 34 33 32 31 30 30 30 30 29 28 29 29 29 30 31 31 31 31 31 31 31 31
16 15 14 12 9 9 13 17 22 27 32 36 38 39 40 40 40 40 39 39 41 41 41 43 46 47 45 45 44 43 42 41 41 42 42 41 40 38 37 36 36 35 35 33 32 32 31 31 31 31 30 30 30 30 31 32 32 31 30 31 31 31 31
20 20 19 18 16 14 14 16 19 25 30 34 37 39 42 42 43 44 45 44 42 41 41 43 45 46 46 45 44 43 41 41 41 42 42 42 41 39 38 37 37 37 35 34 33 33 33 33 33 32 32 32 32 32 32 32 33 32 31 31 31 31 31
22 22 22 22 20 19 17 17 19 24 29 33 36 38 40 40 41 42 44 42 41 41 41 42 43 45 46 45 43 42 41 40 41 42 42 42 41 40 39 38 38 37 36 35 35 35 35 35 34 34 33 33 33 33 33 33 34 33 32 32 32 31 31
23 23 24 23 22 22 21 19 20 23 27 31 34 35 36 37 36 38 41 43 43 42 42 43 43 44 45 45 43 42 41 41 42 42 42 42 42 41 40 39 39 38 37 37 37 36 36 35 34 34 34 34 34 34 35 35 35 34 33 32 32 32 32
24 25 26 26 25 25 25 23 22 23 26 29 31 32 34 36 36 37 41 44 44 42 42 43 44 44 45 44 42 42 42 42 42 42 42 42 42 41 41 40 39 39 38 38 38 37 36 35 34 34 34 34 34 35 35 36 36 36 35 33 33 33 33
24 25 26 26 26 26 27 25 22 22 24 26 28 31 33 34 34 36 39 42 42 41 41 43 45 46 45 43 42 42 42 41 41 42 41 41 41 41 41 40 40 39 38 38 38 37 36 35 34 34 34 34 34 34 35 36 36 37 36 35 35 34 34
23 24 25 25 26 25 24 22 20 20 22 25 28 32 33 33 34 37 40 42 42 41 42 43 45 45 44 42 41 41 41 40 40 40 40 40 40 41 40 40 39 38 37 36 36 36 36 34 34 34 34 34 34 34 35 35 35 36 36 36 35 35 34
22 22 22 23 23 23 21 17 16 17 20 25 28 31 32 34 36 38 41 42 40 40 42 44 44 44 42 41 40 40 39 39 39 38 38 39 40 40 40 39 38 37 36 36 35 36 35 34 34 35 34 34 34 34 34 34 34 35 35 35 35 35 34
21 20 20 21 20 19 16 13 13 16 20 25 28 31 32 34 36 38 40 40 39 38 40 43 42 41 40 39 38 39 39 38 37 37 37 38 38 38 38 38 37 37 36 36 36 36 35 34 34 35 35 34 34 33 33 33 33 34 35 34 34 34 34
16 15 17 18 17 15 11 9 12 15 19 24 28 30 31 33 35 37 38 39 39 39 40 40 39 39 39 38 38 38 38 37 35 35 35 36 36 36 37 36 36 36 36 35 35 34 34 34 32 31 32 32 32 32 32 32 32 33 34 34 34 34 34
14 13 15 15 14 11 6 5 10 15 18 22 27 29 31 33 36 37 37 38 40 40 38 37 37 37 36 36 37 37 36 35 35 34 34 35 34 34 34 34 34 35 34 34 34 33 33 33 31 29 28 27 27 27 28 28 30 32 33 34 33 33 34
17 15 15 14 12 10 5 2 8 14 17 21 25 28 30 33 35 35 35 37 39 38 37 36 35 34 34 35 35 36 35 35 34 33 33 34 33 32 33 33 34 34 33 31 30 29 26 26 25 25 24 23 22 21 21 22 24 28 32 33 32 31 33
21 18 17 16 13 9 5 2 4 9 14 18 22 25 28 31 33 33 34 36 37 37 36 35 34 32 33 34 34 35 35 35 33 32 32 32 32 32 32 32 32 33 32 28 25 22 20 19 19 19 21 21 21 20 19 20 21 24 28 31 31 30 30
24 21 19 18 15 11 8 2 2 5 8 13 18 20 24 28 30 31 33 35 36 36 35 34 33 32 32 34 34 34 34 34 32 31 30 30 30 30 30 30 30 31 29 26 22 19 18 18 18 18 18 19 20 20 19 19 20 21 23 26 28 27 27
26 23 21 20 19 17 13 6 1 5 7 9 12 14 18 23 26 28 31 33 34 34 34 33 32 32 32 33 33 33 32 32 31 29 28 28 28 27 27 28 28 28 27 25 23 20 18 18 19 19 18 18 18 19 19 20 20 20 21 23 25 25 24
28 25 22 21 21 19 18 13 6 3 5 7 8 9 12 16 19 24 29 32 31 32 32 31 30 30 30 30 31 31 30 30 29 28 27 26 26 26 26 26 27 27 27 27 26 23 20 19 20 20 20 19 18 17 19 21 21 21 21 22 23 23 22
30 27 23 21 20 20 21 19 14 8 5 5 6 8 9 10 13 18 24 28 29 29 30 30 29 27 28 28 29 30 30 30 29 27 26 26 26 25 24 25 26 27 27 28 28 27 23 20 21 22 21 20 19 18 19 21 22 22 21 21 20 21 20
32 29 25 22 21 20 20 21 19 14 9 7 6 7 8 8 10 12 15 21 26 27 27 28 28 27 28 29 29 30 29 29 29 27 24 23 24 26 25 25 26 26 25 25 25 26 24 23 22 22 21 21 21 21 20 21 21 21 20 20 19 17 17
31 29 27 24 21 19 19 20 21 19 15 11 8 7 7 6 8 9 10 15 20 21 23 26 27 27 28 28 29 29 28 28 28 27 24 21 21 25 28 28 27 25 24 23 23 24 25 26 25 23 22 21 21 21 21 20 20 19 18 18 17 15 15
28 29 27 25 22 21 19 19 21 21 18 15 11 9 9 7 6 6 7 11 14 15 18 23 26 26 25 25 27 28 28 27 27 27 26 22 19 21 26 28 28 27 25 24 24 23 23 24 25 25 24 23 22 20 20 20 20 19 18 18 17 15 15
24 28 28 25 23 23 21 19 19 20 19 17 14 11 10 9 8 7 7 9 12 13 15 20 23 24 22 22 24 26 28 28 28 28 27 23 21 21 23 25 26 28 28 27 27 26 25 24 23 23 23 24 23 21 22 22 21 19 19 19 19 17 16
Wind_Direction
198 198 198 198 198 198 197 194 193 193 193 194 198 199 199 200 202 208 216 219 219 218 216 216 217 218 221 223 222 221 222 224 226 226 229 231 232 233 232 232 232 231 233 235 237 238 238 235 231 229 227 225 226 226 223 223 222 221 222 227 233 235 233
199 198 198 198 199 200 198 195 194 194 195 195 199 202 200 200 203 208 215 219 218 217 216 216 216 217 219 222 222 222 221 223 225 225 225 227 228 229 230 230 229 229 229 232 235 237 237 236 233 231 228 226 227 228 227 225 224 224 224 226 231 237 237
202 199 199 199 201 201 198 196 196 196 196 196 199 203 203 205 209 213 216 218 218 217 216 216 215 216 218 219 220 222 221 220 223 221 219 223 225 226 227 228 226 227 228 229 232 235 235 233 232 232 230 228 227 227 228 227 226 226 227 228 230 235 239
207 201 201 203 203 201 198 197 197 197 197 199 201 204 207 210 213 215 218 220 218 216 215 215 215 215 216 217 218 221 220 218 220 218 219 224 225 224 225 227 226 226 228 229 229 231 233 231 230 231 230 228 227 227 227 226 227 228 229 231 231 232 236
208 204 204 206 204 201 199 198 198 199 199 199 201 205 208 211 213 215 218 221 220 218 216 215 215 215 216 216 217 219 219 218 219 218 220 223 224 223 225 226 228 228 228 229 229 228 229 228 228 230 229 228 228 227 227 227 227 228 229 231 233 231 234
208 204 204 205 203 202 201 200 200 201 200 198 198 201 203 207 211 213 216 219 220 219 218 217 216 216 216 215 216 219 218 218 219 219 220 222 222 223 224 226 228 229 229 229 229 228 227 225 226 228 228 228 229 229 229 229 229 230 230 230 233 232 232
209 203 203 203 202 203 203 203 203 202 200 198 196 197 198 202 206 208 211 215 218 218 217 217 216 216 216 215 216 218 218 219 219 219 221 221 220 221 223 224 226 228 228 228 227 227 226 224 224 227 229 230 231 232 232 231 230 232 233 233 234 235 235
211 203 203 203 203 205 205 203 202 200 197 195 194 195 196 198 200 203 207 211 215 216 216 216 216 216 216 215 215 217 218 219 219 219 220 220 219 219 220 221 222 224 226 226 226 225 224 224 223 225 228 230 232 233 233 234 232 232 234 235 236 238 240
212 204 204 207 207 208 206 202 199 196 194 194 194 196 196 195 197 202 205 207 210 214 215 214 214 215 216 215 215 216 216 217 218 218 218 218 218 218 218 219 219 220 222 224 225 224 223 223 223 225 227 229 232 233 233 235 234 233 234 235 238 240 241
214 207 207 211 211 208 203 199 195 193 193 194 195 195 195 195 197 199 200 202 207 211 212 211 209 213 216 215 214 215 215 216 216 217 217 217 217 217 217 219 220 220 220 221 223 224 222 221 222 225 227 228 231 233 233 234 234 234 235 237 239 241 241
216 210 211 214 213 207 200 195 193 192 192 193 194 194 195 196 197 197 198 201 205 206 207 207 206 210 215 215 214 215 215 214 215 216 216 215 217 217 217 219 222 223 221 218 220 222 222 220 221 223 227 228 231 233 234 234 234 234 234 236 239 240 241
213 212 220 220 212 204 199 196 194 192 193 195 196 195 195 196 197 197 198 201 202 201 201 203 202 207 214 215 213 214 214 213 214 215 215 215 216 217 217 217 220 223 222 218 218 221 222 222 221 223 227 229 230 233 235 235 234 234 233 234 237 239 241
212 217 224 218 208 201 198 197 196 194 197 201 200 197 197 198 197 197 198 199 199 197 198 200 201 206 214 215 213 214 214 213 213 214 215 215 215 216 217 216 217 222 223 219 217 219 222 224 224 225 228 230 231 233 235 236 235 235 234 233 235 237 240
246 232 219 207 202 199 197 197 197 197 201 204 202 199 199 199 198 198 198 197 196 195 196 199 203 209 214 216 214 214 214 213 213 214 215 215 214 215 217 216 217 220 223 222 219 219 221 224 227 228 228 230 232 233 235 237 236 235 235 233 233 236 239
287 264 224 202 198 199 201 201 201 204 208 207 202 199 199 199 198 198 198 196 196 195 195 199 204 210 214 216 216 215 214 213 214 215 215 215 215 215 217 218 219 220 223 222 220 219 221 223 226 229 230 229 230 232 234 236 237 236 235 235 234 235 239
312 307 288 228 207 206 209 209 209 213 215 210 204 200 199 199 199 198 198 197 195 194 195 200 207 212 215 217 217 216 215 214 214 215 215 215 215 215 217 219 220 221 223 223 221 221 222 223 225 228 230 230 229 230 232 235 237 237 236 236 236 236 238
324 322 319 306 252 226 221 217 215 216 217 216 212 206 201 200 202 201 197 195 195 194 196 203 211 215 218 218 217 217 216 214 214 215 215 216 216 216 216 218 219 221 222 223 223 223 223 224 226 227 229 231 231 231 233 235 237 237 237 237 237 237 238
324 322 319 316 305 274 249 234 223 218 221 223 218 209 204 202 202 202 200 198 198 196 197 205 213 217 218 218 218 218 216 214 214 215 216 216 217 216 216 217 219 221 222 222 223 224 225 226 227 227 228 231 232 232 234 236 238 237 237 237 237 237 238
320 319 317 313 309 298 278 260 240 227 227 227 220 213 210 206 204 208 210 206 201 196 196 203 211 216 217 217 218 218 216 214 215 216 217 217 217 217 217 218 220 221 222 223 224 225 226 227 228 228 228 230 232 233 234 237 239 238 237 236 237 237 237
318 316 314 309 307 301 291 277 256 237 229 228 225 220 214 207 205 209 210 206 201 197 198 202 208 213 217 217 218 217 216 214 215 216 217 218 218 218 218 218 220 221 223 225 226 227 228 229 230 230 230 230 232 233 233 236 239 239 237 236 237 236 237
315 312 309 306 303 299 293 283 265 246 232 226 222 216 207 201 199 202 206 209 207 202 202 205 208 212 217 219 218 217 216 215 216 217 218 219 219 219 219 219 221 222 224 226 228 229 229 230 231 233 233 233 233 234 234 235 237 239 238 237 237 237 237
309 306 304 303 300 295 290 280 265 251 236 225 216 207 202 200 196 197 204 209 209 205 204 207 210 213 218 220 219 217 216 215 216 218 219 220 221 221 221 222 222 223 224 226 229 231 232 232 233 235 236 236 236 236 236 236 236 238 238 237 238 238 238
304 301 300 300 297 293 288 278 263 248 234 222 210 202 200 198 192 191 198 205 206 205 205 209 213 217 221 221 220 218 217 216 217 218 219 220 221 222 222 223 224 224 225 227 229 232 234 234 234 235 237 238 238 238 238 238 238 238 238 237 238 238 239
305 299 299 301 299 296 291 278 258 241 227 215 205 199 196 192 188 190 198 204 205 204 207 211 216 219 222 221 220 219 218 217 217 217 218 220 221 222 223 224 224 224 225 226 228 231 234 235 235 236 236 238 239 239 239 239 240 240 239 238 238 239 240
309 301 300 303 302 300 294 276 250 232 216 205 199 194 190 187 186 192 202 205 202 201 207 214 217 220 221 221 220 219 218 218 218 217 218 219 221 222 224 224 225 225 225 226 227 229 232 234 236 237 237 238 240 241 242 242 243 243 242 240 240 240 240
312 306 307 309 307 301 291 265 236 219 208 201 195 190 186 183 186 196 205 204 199 199 208 216 219 220 221 220 219 219 219 219 219 218 219 221 222 224 225 226 226 227 228 229 229 231 232 233 236 239 241 241 242 244 244 244 244 245 243 241 240 239 239
321 314 314 316 316 309 289 251 226 215 206 199 192 187 183 181 187 199 205 203 202 206 212 217 219 219 220 220 219 219 219 219 219 219 220 223 224 226 227 228 229 231 232 232 233 234 234 234 234 236 240 243 245 246 247 246 245 245 245 243 240 238 238
347 342 334 332 331 326 306 246 227 219 206 195 190 186 183 185 195 204 206 205 208 210 211 213 216 218 219 219 218 218 218 219 219 220 221 224 225 226 227 229 230 232 233 233 234 236 237 237 235 234 236 240 242 244 245 245 245 245 244 244 242 239 237
9 3 357 357 349 342 346 271 229 217 202 193 190 186 184 191 202 208 207 207 209 208 207 211 216 217 217 217 216 216 217 218 219 219 221 222 223 225 226 228 229 230 230 231 232 233 234 235 235 232 232 234 236 236 236 237 240 242 242 241 240 238 237
14 13 15 13 2 3 26 356 237 208 197 194 191 187 188 198 207 210 208 207 206 204 206 212 215 215 216 216 215 215 216 218 218 218 220 221 222 224 225 226 228 230 231 230 228 226 225 226 227 226 227 228 230 232 232 232 236 240 241 239 236 235 235
11 17 26 27 27 41 53 21 235 188 184 188 188 188 192 202 212 212 207 206 205 205 207 211 213 215 216 215 214 214 215 217 218 218 219 220 222 223 224 225 227 229 229 227 223 218 218 221 222 223 225 226 226 229 231 231 232 237 242 242 236 233 234
14 25 33 36 40 49 50 38 177 183 173 174 182 190 195 201 210 212 207 204 205 207 208 211 213 215 216 215 215 214 214 216 217 217 217 218 220 222 223 224 226 228 227 227 223 217 214 217 219 220 223 224 225 227 229 230 231 233 239 243 239 232 231
17 28 33 35 42 52 55 52 55 129 163 166 173 183 189 193 200 205 206 206 207 208 209 212 215 215 215 215 214 213 213 213 213 212 213 215 217 219 222 223 225 227 228 228 226 220 214 214 217 219 221 223 225 226 226 228 230 229 231 239 241 235 231
14 26 35 39 45 56 61 56 52 68 112 138 151 161 168 175 186 197 204 208 211 211 212 213 214 214 214 213 212 212 212 210 209 208 209 212 214 215 218 221 222 224 226 227 226 221 215 212 214 216 219 221 222 224 226 227 230 230 229 232 236 235 235
10 23 36 39 41 51 59 54 48 56 78 98 121 148 154 159 175 189 199 206 210 212 214 214 212 212 213 212 210 210 210 209 210 208 207 210 213 212 212 215 217 219 222 225 226 223 218 215 216 217 219 222 223 225 227 227 229 230 228 228 231 240 249
7 20 36 42 43 51 58 55 49 50 61 77 98 126 137 150 178 190 194 205 210 212 213 214 213 211 211 210 209 210 210 210 211 210 207 206 210 215 217 217 216 216 216 218 223 224 221 220 219 218 220 221 222 224 226 228 231 231 232 237 242 248 253
5 15 28 36 40 46 53 56 54 51 53 60 76 98 112 125 159 180 187 199 207 211 213 214 213 210 207 206 209 209 208 209 211 213 210 206 206 218 225 224 222 222 221 219 222 225 226 226 225 224 225 225 225 228 231 234 236 236 238 247 252 247 242
3 12 21 31 40 43 44 47 46 44 46 51 59 77 100 115 130 146 164 180 188 197 207 210 210 207 203 204 208 210 210 211 213 215 214 209 207 216 225 225 225 228 228 227 227 229 232 235 235 232 232 233 233 235 238 240 242 240 239 242 243 238 234